        Date        , GPU Core Clock [MHz] , GPU Memory Clock [MHz] , GPU Temperature [�C] , Fan Speed [%] , GPU Load [%] , Fan Speed [RPM] , GPU Temp.(DISPIO) [�C] , GPU Temp.(MEMIO) [�C] , GPU Temp.(SHADERCORE) [�C] , VDDC Current [A] , ??? Current [A] , VDDC Slave #1 Temperature [�C] , VDDC Slave #2 Temperature [�C] , VDDC Slave #3 Temperature [�C] , ??? Slave #1 Temperature [�C] , ??? Slave #2 Temperature [�C] , VDDC [V] , ??? [V] ,
2009-09-09 02:10:44 ,              905.0   ,                975.0   ,               68.0   ,          31   ,         98   ,             1   ,                 68.5   ,                78.5   ,                     73.0   ,           49.5   ,          20.1   ,                         70.0   ,                         60.0   ,                         60.0   ,                        63.0   ,                        59.0   , 1.3500   ,1.2000   ,
2009-09-09 02:10:45 ,              905.0   ,                975.0   ,               68.0   ,          32   ,         98   ,             1   ,                 69.0   ,                78.0   ,                     73.0   ,           48.8   ,          20.1   ,                         70.0   ,                         60.0   ,                         60.0   ,                        63.0   ,                        59.0   , 1.3500   ,1.2000   ,
2009-09-09 02:10:46 ,              905.0   ,                975.0   ,               67.0   ,          30   ,         98   ,             1   ,                 67.0   ,                77.5   ,                     71.0   ,           25.7   ,          19.7   ,                         69.0   ,                         59.0   ,                         60.0   ,                        63.0   ,                        59.0   , 1.3500   ,1.2000   ,
2009-09-09 02:10:47 ,              905.0   ,                975.0   ,               69.0   ,          31   ,         95   ,             1   ,                 69.0   ,                77.0   ,                     72.5   ,           49.5   ,          20.1   ,                         70.0   ,                         60.0   ,                         61.0   ,                        63.0   ,                        59.0   , 1.3500   ,1.2000   ,
2009-09-09 02:10:48 ,              905.0   ,                975.0   ,               69.0   ,          31   ,         95   ,             1   ,                 69.0   ,                79.0   ,                     74.0   ,           48.8   ,          20.1   ,                         70.0   ,                         60.0   ,                         61.0   ,                        63.0   ,                        59.0   , 1.3500   ,1.2000   ,
2009-09-09 02:10:49 ,              905.0   ,                975.0   ,               68.0   ,          32   ,         93   ,             1   ,                 68.5   ,                78.5   ,                     73.0   ,           49.5   ,          19.7   ,                         70.0   ,                         60.0   ,                         60.0   ,                        63.0   ,                        59.0   , 1.3500   ,1.2000   ,
2009-09-09 02:10:50 ,              905.0   ,                975.0   ,               69.0   ,          33   ,         95   ,             1   ,                 69.0   ,                79.0   ,                     74.0   ,           49.5   ,          19.7   ,                         71.0   ,                         61.0   ,                         61.0   ,                        63.0   ,                        59.0   , 1.3500   ,1.2000   ,
2009-09-09 02:10:51 ,              905.0   ,                975.0   ,               68.0   ,          33   ,         95   ,             1   ,                 69.5   ,                79.0   ,                     74.0   ,           48.8   ,          19.7   ,                         71.0   ,                         61.0   ,                         61.0   ,                        63.0   ,                        60.0   , 1.3500   ,1.2000   ,
2009-09-09 02:10:52 ,              905.0   ,                975.0   ,               70.0   ,          32   ,         97   ,             1   ,                 70.5   ,                79.5   ,                     74.5   ,           49.5   ,          19.7   ,                         71.0   ,                         61.0   ,                         61.0   ,                        64.0   ,                        59.0   , 1.3500   ,1.2000   ,
2009-09-09 02:10:53 ,              905.0   ,                975.0   ,               70.0   ,          32   ,         97   ,             1   ,                 69.5   ,                79.5   ,                     74.5   ,           49.5   ,          19.7   ,                         71.0   ,                         61.0   ,                         61.0   ,                        64.0   ,                        60.0   , 1.3500   ,1.2000   ,
2009-09-09 02:10:54 ,              905.0   ,                975.0   ,               70.0   ,          32   ,         97   ,             1   ,                 70.0   ,                79.0   ,                     74.0   ,           49.5   ,          19.7   ,                         71.0   ,                         61.0   ,                         61.0   ,                        64.0   ,                        60.0   , 1.3500   ,1.2000   ,
2009-09-09 02:10:55 ,              905.0   ,                975.0   ,               70.0   ,          33   ,         97   ,             1   ,                 70.0   ,                79.0   ,                     74.5   ,           49.5   ,          20.1   ,                         72.0   ,                         62.0   ,                         61.0   ,                        64.0   ,                        60.0   , 1.3500   ,1.2000   ,
2009-09-09 02:10:56 ,              905.0   ,                975.0   ,               70.0   ,          33   ,         97   ,             1   ,                 71.0   ,                79.5   ,                     75.0   ,           49.5   ,          19.7   ,                         72.0   ,                         62.0   ,                         61.0   ,                        64.0   ,                        60.0   , 1.3500   ,1.2000   ,
2009-09-09 02:10:57 ,              905.0   ,                975.0   ,               70.0   ,          33   ,         97   ,             1   ,                 70.5   ,                79.5   ,                     75.0   ,           49.5   ,          20.1   ,                         72.0   ,                         62.0   ,                         61.0   ,                        64.0   ,                        60.0   , 1.3500   ,1.2000   ,
2009-09-09 02:10:58 ,              905.0   ,                975.0   ,               70.0   ,          33   ,         97   ,             1   ,                 70.5   ,                79.5   ,                     74.5   ,           49.5   ,          20.1   ,                         72.0   ,                         62.0   ,                         62.0   ,                        65.0   ,                        60.0   , 1.3500   ,1.2000   ,
2009-09-09 02:10:59 ,              905.0   ,                975.0   ,               70.0   ,          34   ,         97   ,             1   ,                 70.5   ,                80.0   ,                     75.0   ,           49.5   ,          20.1   ,                         73.0   ,                         62.0   ,                         62.0   ,                        65.0   ,                        60.0   , 1.3500   ,1.2000   ,
2009-09-09 02:11:00 ,              905.0   ,                975.0   ,               70.0   ,          33   ,         97   ,             1   ,                 71.0   ,                80.5   ,                     75.5   ,           49.5   ,          20.1   ,                         73.0   ,                         62.0   ,                         62.0   ,                        64.0   ,                        60.0   , 1.3500   ,1.2000   ,
2009-09-09 02:11:01 ,              905.0   ,                975.0   ,               72.0   ,          34   ,         97   ,             1   ,                 72.0   ,                81.0   ,                     76.0   ,           49.5   ,          20.1   ,                         74.0   ,                         62.0   ,                         62.0   ,                        65.0   ,                        60.0   , 1.3500   ,1.2000   ,
2009-09-09 02:11:02 ,              905.0   ,                975.0   ,               71.0   ,          34   ,         97   ,             1   ,                 71.5   ,                80.5   ,                     75.5   ,           49.5   ,          20.1   ,                         74.0   ,                         63.0   ,                         62.0   ,                        65.0   ,                        60.0   , 1.3500   ,1.2000   ,
2009-09-09 02:11:03 ,              905.0   ,                975.0   ,               71.0   ,          34   ,         97   ,             1   ,                 71.0   ,                80.0   ,                     75.5   ,           49.5   ,          20.1   ,                         73.0   ,                         63.0   ,                         62.0   ,                        65.0   ,                        61.0   , 1.3500   ,1.2000   ,
2009-09-09 02:11:04 ,              905.0   ,                975.0   ,               71.0   ,          34   ,         97   ,             1   ,                 70.5   ,                81.0   ,                     76.0   ,           49.5   ,          20.1   ,                         74.0   ,                         63.0   ,                         62.0   ,                        65.0   ,                        61.0   , 1.3500   ,1.2000   ,
2009-09-09 02:11:05 ,              905.0   ,                975.0   ,               72.0   ,          34   ,         97   ,             1   ,                 72.5   ,                81.0   ,                     76.5   ,           50.1   ,          20.1   ,                         74.0   ,                         63.0   ,                         62.0   ,                        65.0   ,                        61.0   , 1.3500   ,1.2000   ,
2009-09-09 02:11:06 ,              905.0   ,                975.0   ,               72.0   ,          34   ,         97   ,             1   ,                 72.0   ,                80.5   ,                     76.0   ,           49.5   ,          20.1   ,                         74.0   ,                         63.0   ,                         63.0   ,                        65.0   ,                        61.0   , 1.3500   ,1.2000   ,
2009-09-09 02:11:07 ,              905.0   ,                975.0   ,               72.0   ,          34   ,         97   ,             1   ,                 72.0   ,                81.5   ,                     76.5   ,           49.5   ,          20.1   ,                         74.0   ,                         63.0   ,                         63.0   ,                        65.0   ,                        61.0   , 1.3500   ,1.2000   ,
2009-09-09 02:11:08 ,              905.0   ,                975.0   ,               71.0   ,          34   ,         97   ,             1   ,                 72.0   ,                81.5   ,                     76.5   ,           49.5   ,          20.1   ,                         74.0   ,                         63.0   ,                         63.0   ,                        65.0   ,                        61.0   , 1.3500   ,1.2000   ,
2009-09-09 02:11:09 ,              905.0   ,                975.0   ,               72.0   ,          34   ,         97   ,             1   ,                 72.0   ,                81.0   ,                     76.5   ,           49.5   ,          20.1   ,                         74.0   ,                         63.0   ,                         63.0   ,                        66.0   ,                        61.0   , 1.3500   ,1.2000   ,
2009-09-09 02:11:11 ,              905.0   ,                975.0   ,               72.0   ,          34   ,         97   ,             1   ,                 72.5   ,                81.5   ,                     76.5   ,           49.5   ,          20.1   ,                         74.0   ,                         64.0   ,                         64.0   ,                        66.0   ,                        62.0   , 1.3500   ,1.2000   ,
2009-09-09 02:11:12 ,              240.0   ,                975.0   ,               63.0   ,          27   ,          1   ,             1   ,                 63.5   ,                75.0   ,                     66.0   ,            2.0   ,          19.3   ,                         62.0   ,                         59.0   ,                         59.0   ,                        65.0   ,                        61.0   , 1.1875   ,1.2000   ,
2009-09-09 02:11:13 ,              910.0   ,                975.0   ,               71.0   ,          34   ,          0   ,             1   ,                 72.5   ,                81.5   ,                     76.0   ,           50.1   ,          20.1   ,                         72.0   ,                         63.0   ,                         62.0   ,                        66.0   ,                        62.0   , 1.3500   ,1.2000   ,
2009-09-09 02:11:14 ,              910.0   ,                975.0   ,               71.0   ,          34   ,          0   ,             1   ,                 71.0   ,                81.0   ,                     75.0   ,           40.6   ,          20.1   ,                         74.0   ,                         63.0   ,                         63.0   ,                        66.0   ,                        62.0   , 1.3500   ,1.2000   ,
2009-09-09 02:11:15 ,              910.0   ,                975.0   ,               71.0   ,          34   ,         99   ,             1   ,                 71.5   ,                81.5   ,                     76.5   ,           50.1   ,          20.1   ,                         74.0   ,                         63.0   ,                         63.0   ,                        66.0   ,                        62.0   , 1.3500   ,1.2000   ,
2009-09-09 02:11:16 ,              910.0   ,                975.0   ,               73.0   ,          34   ,         97   ,             1   ,                 72.5   ,                82.0   ,                     76.5   ,           50.1   ,          20.1   ,                         74.0   ,                         64.0   ,                         64.0   ,                        66.0   ,                        62.0   , 1.3500   ,1.2000   ,
2009-09-09 02:11:17 ,              910.0   ,                975.0   ,               73.0   ,          34   ,         97   ,             1   ,                 72.5   ,                81.5   ,                     77.5   ,           50.1   ,          20.1   ,                         74.0   ,                         64.0   ,                         64.0   ,                        66.0   ,                        62.0   , 1.3500   ,1.2000   ,
2009-09-09 02:11:18 ,              910.0   ,                975.0   ,               72.0   ,          34   ,         97   ,             1   ,                 72.0   ,                83.0   ,                     76.5   ,           49.5   ,          20.1   ,                         74.0   ,                         64.0   ,                         64.0   ,                        67.0   ,                        62.0   , 1.3500   ,1.2000   ,
2009-09-09 02:11:19 ,              910.0   ,                975.0   ,               72.0   ,          34   ,         97   ,             1   ,                 72.5   ,                82.0   ,                     76.0   ,           33.9   ,          19.7   ,                         74.0   ,                         64.0   ,                         64.0   ,                        66.0   ,                        62.0   , 1.3500   ,1.2000   ,
2009-09-09 02:11:20 ,              910.0   ,                975.0   ,               72.0   ,          35   ,         97   ,             1   ,                 73.0   ,                82.5   ,                     77.5   ,           50.1   ,          20.1   ,                         74.0   ,                         64.0   ,                         65.0   ,                        66.0   ,                        62.0   , 1.3500   ,1.2000   ,
2009-09-09 02:11:21 ,              910.0   ,                975.0   ,               73.0   ,          35   ,         97   ,             1   ,                 72.5   ,                83.0   ,                     77.5   ,           50.1   ,          20.1   ,                         74.0   ,                         64.0   ,                         65.0   ,                        67.0   ,                        62.0   , 1.3500   ,1.2000   ,
2009-09-09 02:11:22 ,              910.0   ,                975.0   ,               73.0   ,          35   ,         97   ,             1   ,                 73.5   ,                82.5   ,                     77.5   ,           49.5   ,          20.1   ,                         74.0   ,                         65.0   ,                         65.0   ,                        67.0   ,                        62.0   , 1.3500   ,1.2000   ,
2009-09-09 02:11:23 ,              910.0   ,                975.0   ,               74.0   ,          35   ,         97   ,             1   ,                 74.0   ,                82.5   ,                     77.5   ,           50.1   ,          20.1   ,                         74.0   ,                         65.0   ,                         65.0   ,                        67.0   ,                        63.0   , 1.3500   ,1.2000   ,
2009-09-09 02:11:24 ,              910.0   ,                975.0   ,               73.0   ,          35   ,         97   ,             1   ,                 73.5   ,                83.0   ,                     77.5   ,           39.3   ,          19.7   ,                         74.0   ,                         65.0   ,                         65.0   ,                        67.0   ,                        63.0   , 1.3500   ,1.2000   ,
2009-09-09 02:11:25 ,              910.0   ,                975.0   ,               73.0   ,          35   ,         97   ,             1   ,                 73.0   ,                83.5   ,                     77.5   ,           50.1   ,          20.1   ,                         74.0   ,                         65.0   ,                         65.0   ,                        68.0   ,                        63.0   , 1.3500   ,1.2000   ,
2009-09-09 02:11:26 ,              910.0   ,                975.0   ,               74.0   ,          35   ,         97   ,             1   ,                 74.0   ,                84.0   ,                     79.0   ,           50.1   ,          20.1   ,                         74.0   ,                         65.0   ,                         65.0   ,                        67.0   ,                        63.0   , 1.3500   ,1.2000   ,
2009-09-09 02:11:27 ,              910.0   ,                975.0   ,               74.0   ,          35   ,         97   ,             1   ,                 74.0   ,                84.5   ,                     79.0   ,           49.5   ,          20.1   ,                         75.0   ,                         66.0   ,                         65.0   ,                        68.0   ,                        63.0   , 1.3500   ,1.2000   ,
2009-09-09 02:11:28 ,              910.0   ,                975.0   ,               74.0   ,          35   ,         97   ,             1   ,                 74.5   ,                83.5   ,                     79.0   ,           50.1   ,          20.1   ,                         75.0   ,                         65.0   ,                         65.0   ,                        68.0   ,                        63.0   , 1.3500   ,1.2000   ,
2009-09-09 02:11:29 ,              910.0   ,                975.0   ,               74.0   ,          35   ,         97   ,             1   ,                 74.5   ,                83.5   ,                     78.5   ,           50.1   ,          20.1   ,                         75.0   ,                         66.0   ,                         65.0   ,                        68.0   ,                        63.0   , 1.3500   ,1.2000   ,
2009-09-09 02:11:30 ,              910.0   ,                975.0   ,               74.0   ,          36   ,         97   ,             1   ,                 74.0   ,                84.5   ,                     78.5   ,           50.1   ,          20.1   ,                         75.0   ,                         66.0   ,                         66.0   ,                        68.0   ,                        63.0   , 1.3500   ,1.2000   ,
2009-09-09 02:11:31 ,              910.0   ,                975.0   ,               75.0   ,          35   ,         97   ,             1   ,                 74.5   ,                84.5   ,                     78.5   ,           50.1   ,          20.1   ,                         76.0   ,                         66.0   ,                         66.0   ,                        68.0   ,                        63.0   , 1.3500   ,1.2000   ,
2009-09-09 02:11:32 ,              910.0   ,                975.0   ,               74.0   ,          35   ,         97   ,             1   ,                 74.5   ,                85.0   ,                     79.5   ,           50.1   ,          20.1   ,                         76.0   ,                         66.0   ,                         66.0   ,                        68.0   ,                        64.0   , 1.3500   ,1.2000   ,
2009-09-09 02:11:33 ,              910.0   ,                975.0   ,               75.0   ,          36   ,         97   ,             1   ,                 75.0   ,                84.0   ,                     80.0   ,           50.1   ,          20.1   ,                         76.0   ,                         66.0   ,                         66.0   ,                        68.0   ,                        64.0   , 1.3500   ,1.2000   ,
2009-09-09 02:11:34 ,              910.0   ,                975.0   ,               75.0   ,          35   ,         97   ,             1   ,                 74.5   ,                85.0   ,                     79.5   ,           50.1   ,          20.1   ,                         76.0   ,                         67.0   ,                         66.0   ,                        68.0   ,                        64.0   , 1.3500   ,1.2000   ,
2009-09-09 02:11:35 ,              910.0   ,                975.0   ,               75.0   ,          36   ,         97   ,             1   ,                 75.5   ,                85.0   ,                     80.0   ,           50.1   ,          20.1   ,                         76.0   ,                         66.0   ,                         66.0   ,                        69.0   ,                        64.0   , 1.3500   ,1.2000   ,
2009-09-09 02:11:36 ,              910.0   ,                975.0   ,               75.0   ,          36   ,         97   ,             1   ,                 75.5   ,                84.5   ,                     79.5   ,           50.8   ,          20.1   ,                         77.0   ,                         67.0   ,                         67.0   ,                        69.0   ,                        64.0   , 1.3500   ,1.2000   ,
2009-09-09 02:11:37 ,              910.0   ,                975.0   ,               75.0   ,          37   ,         97   ,             1   ,                 76.0   ,                84.5   ,                     80.5   ,           50.1   ,          20.1   ,                         77.0   ,                         67.0   ,                         66.0   ,                        69.0   ,                        64.0   , 1.3500   ,1.2000   ,